When you browse on this site, cookies collect data to enhance your experience and personalize the content and advertising you see.
Visit our Privacy Policy to learn more. By continuing to use the site, you agree to this use of cookies and data.
  • In Romania
  • List of Countries
  • For 7 days
  • Water Temperature
  • Satellite Maps
  • Weather Map
  • Weather Widgets
  • user-avatar
    Login

    Hourly Weather Larisa

    Today, 24 March, Sunday

    Time Temperature Precipitation Wind Pressure Humidity
    00:00 +10°C° 0 mm 1 mps 758 mmHg 80%
    01:00 +9°C° 0 mm 0 mps 759 mmHg 80%
    02:00 +10°C° 0 mm 1 mps 759 mmHg 81%
    03:00 +10°C° 0 mm 1 mps 759 mmHg 81%
    04:00 +10°C° 0 mm 1 mps 759 mmHg 82%
    05:00 +11°C° 0 mm 1 mps 759 mmHg 81%
    06:00 +11°C° 0 mm 1 mps 759 mmHg 81%
    07:00 +11°C° 0 mm 0 mps 759 mmHg 80%
    08:00 +13°C° 0 mm 1 mps 759 mmHg 76%
    09:00 +14°C° 0 mm 1 mps 759 mmHg 73%
    10:00 +15°C° 0 mm 1 mps 759 mmHg 69%
    11:00 +16°C° 0 mm 1 mps 758 mmHg 66%
    12:00 +18°C° 0 mm 1 mps 758 mmHg 62%
    13:00 +19°C° 0 mm 1 mps 758 mmHg 58%
    14:00 +19°C° 0 mm 1 mps 757 mmHg 59%
    15:00 +17°C° 0 mm 2 mps 757 mmHg 60%
    16:00 +17°C° 0 mm 2 mps 757 mmHg 61%
    17:00 +15°C° 0 mm 1 mps 757 mmHg 68%
    18:00 +14°C° 0 mm 1 mps 757 mmHg 76%
    19:00 +12°C° 0 mm 1 mps 757 mmHg 83%
    20:00 +10°C° 0 mm 0 mps 757 mmHg 84%
    21:00 +10°C° 0 mm 0 mps 757 mmHg 84%
    22:00 +9°C° 0 mm 0 mps 757 mmHg 85%
    23:00 +9°C° 0 mm 0 mps 757 mmHg 85%

    Tomorrow, 25 March, Monday

    Time Temperature Precipitation Wind Pressure Humidity
    00:00 +9°C° 0 mm 0 mps 757 mmHg 85%
    01:00 +9°C° 0 mm 0 mps 757 mmHg 84%
    02:00 +8°C° 0 mm 0 mps 756 mmHg 84%
    03:00 +8°C° 0 mm 0 mps 756 mmHg 84%
    04:00 +8°C° 0 mm 0 mps 756 mmHg 84%
    05:00 +9°C° 0 mm 0 mps 756 mmHg 81%
    06:00 +10°C° 0 mm 0 mps 756 mmHg 78%
    07:00 +11°C° 0 mm 0 mps 755 mmHg 75%
    08:00 +13°C° 0 mm 0 mps 755 mmHg 69%
    09:00 +16°C° 0 mm 1 mps 755 mmHg 62%
    10:00 +19°C° 0 mm 1 mps 754 mmHg 56%
    11:00 +20°C° 0 mm 1 mps 754 mmHg 53%
    12:00 +21°C° 0 mm 1 mps 753 mmHg 50%
    13:00 +22°C° 0 mm 1 mps 752 mmHg 47%
    14:00 +21°C° 0 mm 1 mps 752 mmHg 50%
    15:00 +20°C° 0 mm 2 mps 751 mmHg 53%
    16:00 +20°C° 0 mm 2 mps 751 mmHg 55%
    17:00 +18°C° 0 mm 2 mps 751 mmHg 63%
    18:00 +16°C° 0 mm 2 mps 751 mmHg 70%
    19:00 +13°C° 0 mm 1 mps 751 mmHg 78%
    20:00 +13°C° 0 mm 1 mps 751 mmHg 79%
    21:00 +12°C° 0 mm 1 mps 751 mmHg 80%
    22:00 +11°C° 0 mm 0 mps 751 mmHg 81%
    23:00 +11°C° 0 mm 0 mps 751 mmHg 82%

    Day after tomorrow, 26 March, Tuesday

    Time Temperature Precipitation Wind Pressure Humidity
    00:00 +11°C° 0 mm 0 mps 751 mmHg 83%
    01:00 +10°C° 0 mm 0 mps 751 mmHg 83%
    02:00 +10°C° 0 mm 0 mps 751 mmHg 84%
    03:00 +10°C° 0 mm 0 mps 751 mmHg 85%
    04:00 +10°C° 0 mm 0 mps 751 mmHg 86%
    05:00 +11°C° 0.1 mm 0 mps 751 mmHg 84%
    06:00 +12°C° 0.1 mm 0 mps 751 mmHg 82%
    07:00 +12°C° 0.1 mm 0 mps 751 mmHg 80%
    08:00 +15°C° 0.2 mm 1 mps 751 mmHg 77%
    09:00 +16°C° 0.2 mm 1 mps 752 mmHg 73%
    10:00 +18°C° 0.2 mm 1 mps 752 mmHg 70%
    11:00 +18°C° 1.1 mm 2 mps 752 mmHg 69%
    12:00 +18°C° 1.1 mm 2 mps 751 mmHg 69%
    13:00 +18°C° 1.1 mm 3 mps 751 mmHg 68%
    14:00 +17°C° 0.6 mm 3 mps 752 mmHg 71%
    15:00 +17°C° 0.6 mm 3 mps 752 mmHg 73%
    16:00 +15°C° 0.6 mm 4 mps 752 mmHg 75%
    17:00 +14°C° 0.1 mm 3 mps 753 mmHg 77%
    18:00 +14°C° 0.1 mm 2 mps 753 mmHg 80%
    19:00 +12°C° 0.1 mm 1 mps 754 mmHg 82%
    20:00 +12°C° 0 mm 1 mps 755 mmHg 82%
    21:00 +12°C° 0 mm 1 mps 755 mmHg 81%
    22:00 +12°C° 0 mm 1 mps 756 mmHg 81%
    23:00 +11°C° 0 mm 1 mps 756 mmHg 81%

    27 March, Wednesday

    Time Temperature Precipitation Wind Pressure Humidity
    00:00 +11°C° 0 mm 1 mps 756 mmHg 81%
    01:00 +10°C° 0 mm 1 mps 757 mmHg 80%
    02:00 +10°C° 0 mm 1 mps 757 mmHg 79%
    03:00 +10°C° 0 mm 1 mps 757 mmHg 78%
    04:00 +9°C° 0 mm 1 mps 757 mmHg 77%
    05:00 +10°C° 0 mm 1 mps 758 mmHg 75%
    06:00 +10°C° 0 mm 1 mps 758 mmHg 73%
    07:00 +11°C° 0 mm 1 mps 758 mmHg 71%
    08:00 +12°C° 0.2 mm 1 mps 759 mmHg 67%
    09:00 +12°C° 0.2 mm 2 mps 759 mmHg 64%
    10:00 +13°C° 0.2 mm 2 mps 759 mmHg 61%
    11:00 +13°C° 0.3 mm 2 mps 759 mmHg 64%
    12:00 +12°C° 0.3 mm 3 mps 759 mmHg 67%
    13:00 +12°C° 0.3 mm 3 mps 759 mmHg 69%
    14:00 +11°C° 0.1 mm 3 mps 759 mmHg 72%
    15:00 +12°C° 0.1 mm 2 mps 759 mmHg 75%
    16:00 +12°C° 0.1 mm 2 mps 758 mmHg 78%
    17:00 +12°C° 0.1 mm 2 mps 759 mmHg 81%
    18:00 +10°C° 0.1 mm 2 mps 759 mmHg 85%
    19:00 +10°C° 0.1 mm 1 mps 760 mmHg 88%
    20:00 +10°C° 0.1 mm 1 mps 760 mmHg 88%
    21:00 +11°C° 0.1 mm 1 mps 760 mmHg 88%
    22:00 +11°C° 0.1 mm 1 mps 760 mmHg 89%
    23:00 +10°C° 0.4 mm 2 mps 760 mmHg 89%

    28 March, Thursday

    Time Temperature Precipitation Wind Pressure Humidity
    00:00 +10°C° 0.4 mm 2 mps 760 mmHg 90%
    01:00 +10°C° 0.4 mm 2 mps 760 mmHg 91%
    02:00 +9°C° 0.4 mm 3 mps 760 mmHg 87%
    03:00 +9°C° 0.4 mm 3 mps 759 mmHg 84%
    04:00 +8°C° 0.4 mm 4 mps 759 mmHg 80%
    05:00 +8°C° 0 mm 4 mps 760 mmHg 78%
    06:00 +9°C° 0 mm 3 mps 760 mmHg 76%
    07:00 +9°C° 0 mm 3 mps 760 mmHg 74%
    08:00 +10°C° 0 mm 4 mps 760 mmHg 68%
    09:00 +10°C° 0 mm 5 mps 761 mmHg 62%
    10:00 +11°C° 0 mm 6 mps 761 mmHg 56%
    11:00 +11°C° 0 mm 6 mps 760 mmHg 55%
    12:00 +13°C° 0 mm 6 mps 760 mmHg 53%
    13:00 +13°C° 0 mm 6 mps 760 mmHg 52%
    14:00 +13°C° 0 mm 5 mps 760 mmHg 52%
    15:00 +12°C° 0 mm 5 mps 759 mmHg 52%
    16:00 +12°C° 0 mm 4 mps 759 mmHg 52%
    17:00 +11°C° 0 mm 3 mps 760 mmHg 56%
    18:00 +9°C° 0 mm 2 mps 760 mmHg 60%
    19:00 +8°C° 0 mm 2 mps 760 mmHg 63%
    20:00 +8°C° 0 mm 2 mps 760 mmHg 64%
    21:00 +8°C° 0 mm 2 mps 761 mmHg 65%
    22:00 +8°C° 0 mm 2 mps 761 mmHg 66%
    23:00 +8°C° 0 mm 2 mps 761 mmHg 68%

    29 March, Friday

    Time Temperature Precipitation Wind Pressure Humidity
    00:00 +9°C° 0 mm 1 mps 761 mmHg 69%
    01:00 +8°C° 0 mm 1 mps 761 mmHg 71%
    02:00 +8°C° 0 mm 1 mps 761 mmHg 72%
    03:00 +7°C° 0 mm 1 mps 762 mmHg 74%
    04:00 +7°C° 0 mm 1 mps 762 mmHg 75%
    05:00 +8°C° 0 mm 1 mps 762 mmHg 73%
    06:00 +8°C° 0 mm 1 mps 762 mmHg 72%
    07:00 +9°C° 0 mm 1 mps 762 mmHg 70%
    08:00 +9°C° 0 mm 2 mps 762 mmHg 64%
    09:00 +10°C° 0 mm 2 mps 762 mmHg 58%
    10:00 +12°C° 0 mm 2 mps 762 mmHg 51%
    11:00 +13°C° 0 mm 2 mps 761 mmHg 49%
    12:00 +14°C° 0 mm 2 mps 761 mmHg 47%
    13:00 +14°C° 0 mm 2 mps 760 mmHg 44%
    14:00 +14°C° 0 mm 2 mps 760 mmHg 45%
    15:00 +14°C° 0 mm 2 mps 760 mmHg 45%
    16:00 +14°C° 0 mm 2 mps 760 mmHg 45%
    17:00 +12°C° 0 mm 2 mps 760 mmHg 51%
    18:00 +10°C° 0 mm 1 mps 760 mmHg 56%
    19:00 +8°C° 0 mm 1 mps 760 mmHg 62%
    20:00 +8°C° 0 mm 1 mps 761 mmHg 64%
    21:00 +7°C° 0 mm 1 mps 761 mmHg 66%
    22:00 +7°C° 0 mm 1 mps 761 mmHg 68%
    23:00 +6°C° 0 mm 1 mps 761 mmHg 68%
    Show more